Weather History for Nantucket, MA

Change the Weather History Date:

Monday, November 19, 2012

  Actual Average Record
Temperature  
Mean Temperature 48 °F -  
Max Temperature 53 °F 51 °F 61 °F (1953)
Min Temperature 44 °F 37 °F 24 °F (1972)
Degree Days  
Heating Degree Days 16    
Moisture  
Dew Point 44 °F    
Average Humidity 83    
Maximum Humidity 89    
Minimum Humidity 74    
Precipitation  
Precipitation 0.00 in - - ()
Sea Level Pressure  
Sea Level Pressure 30.38 in    
Wind  
Wind Speed 13 mph (NE)    
Max Wind Speed 20 mph    
Max Gust Speed 26 mph    
Visibility 10 miles    
Events      
Averages and records for this station are not official NWS values.
T = Trace of Precipitation, MM = Missing Value Source: NWS Daily Summary

Daily Weather History Graph

Daily Weather History Graph

Search for Another Location

Airport:

Trip Planner

Search our weather history database for the weather conditions in past years. The results will help you decide how hot, cold, wet, or windy it might be!

Date:

Astronomy

Nov. 19, 2012 Rise Set
Actual Time 6:33 AM EST 4:17 PM EST
Civil Twilight 6:03 AM EST 4:47 PM EST
Nautical Twilight 5:29 AM EST 5:21 PM EST
Astronomical Twilight 4:57 AM EST 5:53 PM EST
Moon 11:33 AM EST 10:42 PM EST
Length of Visible Light 10h 43m
Length of Day
9h 43m
Waxing Crescent, 40% of the Moon is Illuminated
Nov 19
Waxing Crescent
Nov 20
First Quarter
Nov 28
Full
Dec 6
Last Quarter
Dec 13
New

Hourly Weather History & Observations

Time (EST) Temp. Windchill Dew Point Humidity Pressure Visibility Wind Dir Wind Speed Gust Speed Precip Events Conditions
12:53 AM 44.1 °F 38.6 °F 39.9 °F 85% 30.55 in 10.0 mi NNE 10.4 mph - N/A   Clear
1:53 AM 45.0 °F 40.1 °F 41.0 °F 86% 30.54 in 10.0 mi NE 9.2 mph - N/A   Clear
2:53 AM 46.0 °F 40.6 °F 42.1 °F 86% 30.51 in 10.0 mi NE 11.5 mph - N/A   Clear
3:53 AM 46.9 °F - 42.1 °F 83% 30.50 in 10.0 mi NE 10.4 mph - N/A   Clear
4:53 AM 46.9 °F - 43.0 °F 86% 30.49 in 10.0 mi NE 9.2 mph - N/A   Clear
5:53 AM 46.9 °F - 43.0 °F 86% 30.48 in 10.0 mi NE 10.4 mph - N/A   Clear
6:53 AM 46.9 °F - 43.0 °F 86% 30.48 in 10.0 mi NE 11.5 mph - N/A   Clear
7:53 AM 48.9 °F - 44.1 °F 83% 30.46 in 10.0 mi NE 15.0 mph - N/A   Clear
8:53 AM 50.0 °F - 45.0 °F 83% 30.45 in 10.0 mi NE 13.8 mph - N/A   Clear
9:53 AM 51.1 °F - 45.0 °F 80% 30.45 in 10.0 mi NE 18.4 mph 24.2 mph N/A   Partly Cloudy
10:53 AM 51.1 °F - 44.1 °F 77% 30.41 in 10.0 mi NE 18.4 mph 26.5 mph N/A   Clear
11:53 AM 53.1 °F - 45.0 °F 74% 30.39 in 10.0 mi NE 15.0 mph 24.2 mph N/A   Scattered Clouds
12:53 PM 53.1 °F - 45.0 °F 74% 30.36 in 10.0 mi NE 17.3 mph - N/A   Partly Cloudy
1:33 PM 51.8 °F - 44.6 °F 76% 30.35 in 10.0 mi NNE 18.4 mph - N/A   Mostly Cloudy
1:53 PM 51.1 °F - 45.0 °F 80% 30.35 in 10.0 mi NNE 19.6 mph - N/A   Overcast
2:53 PM 51.1 °F - 44.1 °F 77% 30.34 in 10.0 mi NE 18.4 mph - N/A   Overcast
3:53 PM 48.9 °F - 44.1 °F 83% 30.33 in 10.0 mi NNE 13.8 mph - N/A   Mostly Cloudy
4:02 PM 48.2 °F - 44.6 °F 87% 30.33 in 10.0 mi NNE 13.8 mph - N/A   Scattered Clouds
4:53 PM 46.9 °F - 43.0 °F 86% 30.32 in 10.0 mi NNE 13.8 mph - N/A   Scattered Clouds
5:53 PM 46.0 °F 39.9 °F 43.0 °F 89% 30.31 in 10.0 mi NNE 13.8 mph - N/A   Clear
6:53 PM 48.0 °F - 44.1 °F 86% 30.29 in 10.0 mi NNE 13.8 mph - N/A   Mostly Cloudy
7:53 PM 48.0 °F - 44.1 °F 86% 30.27 in 10.0 mi NNE 12.7 mph - N/A   Mostly Cloudy
8:53 PM 48.0 °F - 43.0 °F 83% 30.26 in 10.0 mi NNE 13.8 mph - N/A   Mostly Cloudy
9:53 PM 48.9 °F - 44.1 °F 83% 30.24 in 10.0 mi NNE 12.7 mph - N/A   Overcast
10:53 PM 48.9 °F - 45.0 °F 86% 30.22 in 10.0 mi NNE 13.8 mph - N/A   Overcast
11:53 PM 50.0 °F - 45.0 °F 83% 30.22 in 10.0 mi NNE 12.7 mph - N/A   Overcast